Regional Weather Roundup
Issued by NWS Cleveland, OH

Home | Current Version | Previous Version | Text Only | Print | Product List | Glossary Off
Versions: 1 2 3 4 5 6 7 8 9 10 11 12 13 14 15 16 17 18 19 20 21 22 23 24 25 26 27 28 29 30 31 32 33 34 35 36 37 38 39 40 41 42 43 44 45 46 47 48 49 50

000
ASUS41 KCLE 231212
RWRCLE
OHIO REGIONAL WEATHER ROUNDUP
NATIONAL WEATHER SERVICE WILMINGTON, OH
700 AM EST TUE JAN 23 2018

NOTE: "FAIR" INDICATES FEW OR NO CLOUDS BELOW 12,000 FEET WITH NO
SIGNIFICANT WEATHER AND/OR OBSTRUCTIONS TO VISIBILITY.

OHZ001>008-015>018-024>027-034-035-043-044-231300-
   NORTHWEST OHIO

CITY           SKY/WX    TMP DP  RH WIND       PRES   REMARKS
DEFIANCE       CLOUDY    35  33  92 SW10      29.60S WCI  27
FINDLAY        LGT RAIN  38  33  82 SW9       29.61R
TOLEDO EXPRESS CLOUDY    37  36  96 SW10      29.58R
TOLEDO EXEC    MOCLDY    37  33  85 SW12      29.60R
LIMA           LGT RAIN  37  35  92 SW15      29.62R
$$

OHZ009>014-019>023-028>033-038-089-231300-
   NORTHEAST OHIO

CITY           SKY/WX    TMP DP  RH WIND       PRES   REMARKS
CLE-HOPKINS    FAIR      43  38  82 S8        29.58F
CLE-LAKEFRONT  FAIR      44  37  76 S9        29.54F
CUY CO. ARPT   CLOUDY    45  32  61 S12       29.56
LORAIN-ELYRIA  MOCLDY    39  32  76 MISG      29.59R
ASHTABULA      CLOUDY    46  44  93 S8        29.57S
AKRON-CANTON   CLOUDY    45  40  82 SW9       29.59S
WOOSTER        CLOUDY    38  37  97 S7        29.59S
MANSFIELD      LGT RAIN  37  34  89 W14G23    29.61R
YOUNGSTOWN     CLOUDY    46  42  86 S8        29.58R
$$

OHZ042-051>053-060>062-070>072-077>081-231300-
  SOUTHWEST OHIO

CITY           SKY/WX    TMP DP  RH WIND       PRES   REMARKS
CINC-COVINGTON CLOUDY    39  32  76 SW14G22   29.71R
CINC-LUNKEN    CLOUDY    41  31  67 SW15G26   29.74R
HAMILTON       MOCLDY    38  34  85 SW8       29.72R
DAYTON         CLOUDY    37  36  96 SW16      29.67R
WRIGHT-PAT AFB CLOUDY    38  34  85 SW15      29.67R
DAYTON GENERAL LGT RAIN  38  33  82 SW10      29.68R
WILMINGTON     CLOUDY    38  36  92 W15       29.70R
$$

OHZ036-037-039>041-045>050-054>059-063>069-073>076-082>088-231300-
  CENTRAL AND SOUTHEAST OHIO

CITY           SKY/WX    TMP DP  RH WIND       PRES   REMARKS
COLUMBUS       CLOUDY    43  34  70 SW15G25   29.65R
OSU AIRPORT    CLOUDY    40  35  83 W12G23    29.65R
BOLTON FIELD   RAIN      40  35  80 SW25G33   29.67R
RICKENBACK AFB CLOUDY    42  34  74 SW14      29.66R
NEWARK         CLOUDY    45  32  60 SW16G25   29.64R
MARION         MIX PCPN  36  33  89 W5        29.63R
LANCASTER      CLOUDY    45  33  63 SW14      29.66R
ZANESVILLE     CLOUDY    46  31  55 SW7G17    29.65S
NEW PHILLY     CLOUDY    46  35  65 SW6       29.63R
$$




USA.gov is the U.S. government's official web portal to all federal, state and local government web resources and services.